Palacios, TX

6:28 AM CDT on June 28, 2017 (GMT -0500)
Palacios Municipal

Weather History for KPSX - November, 2011

Change the Weather History Date:

Friday, November 18, 2011

  Actual Average Record
Temperature  
Mean Temperature 60 °F -  
Max Temperature 75 °F 73 °F 85 °F (1945)
Min Temperature 46 °F 56 °F 25 °F (1959)
Degree Days  
Heating Degree Days 4    
Growing Degree Days 10 (Base 50)    
Moisture  
Dew Point 55 °F    
Average Humidity 74    
Maximum Humidity 90    
Minimum Humidity 55    
Precipitation  
Precipitation 0.00 in - - ()
Sea Level Pressure  
Sea Level Pressure 30.12 in    
Wind  
Wind Speed 11 mph (ESE)    
Max Wind Speed 20 mph    
Max Gust Speed 26 mph    
Visibility 10 miles    
Events      
Averages and records for this station are not official NWS values.
T = Trace of Precipitation, MM = Missing Value Source: NWS Daily Summary

Daily Weather History Graph

Daily Weather History Graph

Search for Another Location

Airport or City:

Trip Planner

Search our weather history database for the weather conditions in past years. The results will help you decide how hot, cold, wet, or windy it might be!

Date:

Astronomy

Nov. 18, 2011 Rise Set
Actual Time 6:50 AM CST 5:29 PM CST
Civil Twilight 6:24 AM CST 5:55 PM CST
Nautical Twilight 5:56 AM CST 6:23 PM CST
Astronomical Twilight 5:28 AM CST 6:51 PM CST
Moon No Moon Rise 12:44 PM CST (11/18)
Length of Visible Light 11h 30m
Length of Day
10h 39m
Waning Gibbous, 49% of the Moon is Illuminated
Nov 18
Waning Gibbous
Nov 25
New
Dec 2
First Quarter
Dec 10
Full
Dec 17
Last Quarter

Hourly Weather History & Observations

Time (CST) Temp. Windchill Dew Point Humidity Pressure Visibility Wind Dir Wind Speed Gust Speed Precip Events Conditions
12:53 AM 46.0 °F 42.5 °F 39.0 °F 76% 30.25 in 10.0 mi ENE 6.9 mph - N/A   Clear
1:53 AM 46.0 °F 41.9 °F 39.0 °F 76% 30.24 in 10.0 mi ENE 8.1 mph - N/A   Clear
2:53 AM 46.9 °F - 41.0 °F 80% 30.22 in 10.0 mi NE 8.1 mph - N/A   Clear
3:53 AM 48.9 °F - 41.0 °F 74% 30.21 in 10.0 mi NE 9.2 mph - N/A   Clear
4:53 AM 48.0 °F - 42.1 °F 80% 30.20 in 10.0 mi NE 8.1 mph - N/A   Clear
5:53 AM 48.9 °F - 43.0 °F 80% 30.19 in 10.0 mi NE 9.2 mph - N/A   Clear
6:53 AM 48.9 °F - 45.0 °F 86% 30.20 in 10.0 mi NE 8.1 mph - N/A   Clear
7:53 AM 54.0 °F - 48.0 °F 80% 30.20 in 10.0 mi ENE 9.2 mph - N/A   Clear
8:53 AM 62.1 °F - 52.0 °F 70% 30.20 in 10.0 mi ENE 11.5 mph - N/A   Clear
9:53 AM 70.0 °F - 57.0 °F 63% 30.19 in 10.0 mi East 15.0 mph - N/A   Clear
10:53 AM 73.0 °F - 57.9 °F 59% 30.17 in 10.0 mi SE 17.3 mph - N/A   Clear
11:53 AM 75.0 °F - 57.9 °F 55% 30.14 in 10.0 mi ESE 15.0 mph - N/A   Clear
12:53 PM 75.0 °F - 57.9 °F 55% 30.11 in 10.0 mi SE 19.6 mph 25.3 mph N/A   Clear
1:53 PM 75.0 °F - 60.1 °F 60% 30.08 in 10.0 mi ESE 17.3 mph 26.5 mph N/A   Clear
2:53 PM 73.9 °F - 60.1 °F 62% 30.06 in 10.0 mi SE 18.4 mph 23.0 mph N/A   Clear
3:53 PM 72.0 °F - 60.1 °F 66% 30.05 in 10.0 mi ESE 19.6 mph 25.3 mph N/A   Mostly Cloudy
4:53 PM 70.0 °F - 60.1 °F 71% 30.04 in 10.0 mi ESE 17.3 mph 25.3 mph N/A   Clear
5:53 PM 69.1 °F - 61.0 °F 75% 30.04 in 10.0 mi ESE 12.7 mph - N/A   Overcast
6:53 PM 70.0 °F - 62.1 °F 76% 30.03 in 10.0 mi SE 18.4 mph - N/A   Overcast
7:53 PM 70.0 °F - 63.0 °F 78% 30.03 in 10.0 mi SE 15.0 mph 23.0 mph N/A   Overcast
8:53 PM 70.0 °F - 64.0 °F 81% 30.02 in 10.0 mi SE 18.4 mph 25.3 mph N/A   Mostly Cloudy
9:53 PM 70.0 °F - 64.9 °F 84% 30.02 in 10.0 mi SE 16.1 mph - N/A   Mostly Cloudy
10:53 PM 69.8 °F - 66.2 °F 88% 30.02 in 10.0 mi SSE 10.4 mph - N/A   Partly Cloudy
11:53 PM 69.1 °F - 66.0 °F 90% 30.01 in 10.0 mi SSE 11.5 mph - N/A   Mostly Cloudy